Location: Zagreb
(45.8000°N, 16.0000°E)
Time: 13:52:37
(UTC+02:00)

ISS - Pass Details

Date: 06 October 2021
Orbit: 417 x 423 km, 51.6° (Epoch: 16 October)

Event Time Altitude Azimuth Distance (km) Brightness Sun altitude
Rises 19:34:37 0° 290° (WNW) 2,364 1.7 -12.7°
Reaches altitude 10° 19:37:00 10° 275° (W) 1,497 0.5 -13.1°
Maximum altitude 19:39:40 22° 223° (SW) 967 -1.5 -13.6°
Drops below altitude 10° 19:42:20 10° 170° (S) 1,491 -1.1 -14.0°
Enters shadow 19:43:14 - 162° (SSE) 1,802 -0.8 -14.2°
